Terug naar catalogus

GEESAT 3-09

ActiefCommunicatieLEO
NORAD 61019·PAYLOAD·🇨🇳 China

Gelanceerd Sep 5, 2024 vanaf Taiyuan Satellite Launch Center

Loading…

Volgende Passages (komende 24 uur)

TLE

VersSource: Space-Track

Epoch: Sep 14, 2026, 14:16 UTC

1 61019U 24159J   26257.59484605  .00001366  00000-0  18719-3 0  9996
2 61019  49.9989  27.8969 0021550  44.3866 315.8796 14.84477649110052

Volg GEESAT 3-09 in realtime met AllMySat

Download on the App Store